CENTISPACE-1 S11 (62580 NORAD) Tracking and Keplerian Element Data

This shows tracking and keplerian element data for the satellite.

Feedback or suggestion? Click here.




ElementValue
Catalog62580
NameCENTISPACE-1 S11
Epoch Orbit320
Epoch Day34.83522894
Epoch Year2025
RAAN39.4431
Inclination54.9775
Eccentricity0.0015754
Argument of Perigee352.2352
Mean Anonmoly7.8403
Mean Motion14.77627677
Decay Rate3.744E-05
L11 62580U 25007F 25034.83522894 .00003744 00000+0 54789-3 0 9993
L22 62580 54.9775 39.4431 0015754 352.2352 7.8403 14.77627677 3209



Live tracking and technical data element details for CENTISPACE-1 S11 (NORAD 62580). CENTISPACE-1 S11 can be tracked NOW for your location showing map with azimuth and elevation plus other details from your city location.







IsCatalogInMostPopularTable: catalog: 62580, numindb: 19
Update: records affected: 1



GetName: 62580 CENTISPACE-1 S11

Hit Count: updated at: Mon, 19 May 2025 02:39:52 GMT